Location: Unspecified
(0.0000°N, 0.0000°E)
Time: 03:28:50
(UTC+00:00)

OBJECT M - Pass Details

Date: 22 February 2026
Orbit: 539 x 546 km, 97.4° (Epoch: 6 March)

Event Time Altitude Azimuth Distance (km) Brightness Sun altitude
Rises 05:05:20 0° 195° (SSW) 2,711 ? -16.8°
Reaches altitude 10° 05:07:57 10° 214° (SSW) 1,815 ? -16.1°
Enters shadow 05:09:02 15° 227° (SW) 1,540 ? -15.9°
